Content
SEND FEEDBACK

Daily
Averages
Monthly
Summary
United States of America

TIMBERLAKE, VIRGINIA


Home > North America > United States > Virginia
Elevation: 286 meters     Latitude: 37 19N     Longitude: 079 12W

WEATHER
 
SELECT A DAY
Number of Records: 215,007;   Date Range: 1/1/95 - 10/20/14
 
SHARE

PRINT THIS DATA

[ ← Previous Day ]
WEATHER ALMANAC - 31 JANUARY, 2013
[ Next Day → ]
[ °F ]   °C
Weather ElementAverageHighLow
Temperature3.6 °C10.6 °C (1:54 am)-2.2 °C (11:54 pm)
Dewpoint-5.7 °C7.8 °C (1:54 am)-9.4 °C (1:54 pm)
Humidity51.9 %83 % (1:54 am)38 % (1:54 pm)
Barometer1007.8 hPa1014.2 hPa (9:54 pm)994.6 hPa (1:54 am)
Wind Speed15.9 km/h24.1 km/h (2:54 am)
Wind Gust50.1 km/h (2:54 am)
Weather ElementAverage
Visibility16.1 km
Wind DirectionWSW (248.7 °)

Weather ElementTotal
Precipitation---
Heating Degree Days14.2 (Base 18.3)
Averaged from 23 records on 31 January, 2013
WEATHER CONDITIONS BREAKOUT
WIND DIRECTION BREAKOUT
WEATHER BY HOUR - 31 JANUARY, 2013
[ °F ]   °C
Local TimeTemperatureDewpointHumidityBarometerVisibilityWind DirectionWind SpeedGust SpeedPrecipitationEventsConditions
1:54 AM10.6 °C7.8 °C83 %994.6 hPa16.1 kmWSW (250°)14.8 km/h35.2 km/h0 mmRainLight Rain
2:54 AM10 °C4.4 °C68 %995.3 hPa16.1 kmWest (270°)24.1 km/h50.1 km/h0 mmPartly Cloudy
3:54 AM7.2 °C2.2 °C71 %996.6 hPa16.1 kmWest (260°)16.7 km/h31.5 km/hOvercast
4:54 AM6.7 °C0 °C63 %999 hPa16.1 kmWest (270°)18.5 km/h38.9 km/hPartly Cloudy
5:54 AM5 °C-3.3 °C55 %1001.4 hPa16.1 kmWest (260°)16.7 km/h35.2 km/hPartly Cloudy
6:54 AM3.9 °C-6.1 °C49 %1003 hPa16.1 kmWest (260°)18.5 km/h40.7 km/hPartly Cloudy
7:54 AM3.3 °C-6.7 °C48 %1005.4 hPa16.1 kmWest (270°)16.7 km/h37 km/hScattered Clouds
8:54 AM3.3 °C-7.2 °C47 %1006.1 hPa16.1 kmWest (260°)24.1 km/h42.6 km/hClear
9:54 AM4.4 °C-6.7 °C45 %1007.8 hPa16.1 kmWest (260°)24.1 km/h46.3 km/hPartly Cloudy
10:54 AM4.4 °C-6.1 °C47 %1008.5 hPa16.1 kmWSW (250°)22.2 km/h46.3 km/hPartly Cloudy
11:54 AM4.4 °C-7.2 °C43 %1009.5 hPa16.1 kmWSW (250°)16.7 km/h38.9 km/hOvercast
12:54 PM3.9 °C-6.1 °C49 %1008.8 hPa16.1 kmWest (270°)14.8 km/h37 km/hMostly Cloudy
1:54 PM3.9 °C-9.4 °C38 %1009.5 hPa16.1 kmWest (280°)22.2 km/h40.7 km/hPartly Cloudy
2:54 PM3.9 °C-8.3 °C41 %1010.8 hPa16.1 kmWNW (290°)16.7 km/h31.5 km/hOvercast
3:54 PM2.8 °C-8.9 °C42 %1011.9 hPa16.1 kmWest (280°)20.4 km/h38.9 km/hOvercast
4:54 PM3.3 °C-9.4 °C39 %1012.5 hPa16.1 kmWest (280°)18.5 km/h31.5 km/hOvercast
5:54 PM2.2 °C-8.9 °C44 %1013.2 hPa16.1 kmWest (270°)11.1 km/h25.9 km/hMostly Cloudy
6:54 PM1.7 °C-8.3 °C48 %1013.9 hPa16.1 kmWest (270°)9.3 km/hPartly Cloudy
7:54 PM0.6 °C-8.9 °C50 %1013.9 hPa16.1 kmVariable11.1 km/hClear
8:54 PM0.6 °C-8.9 °C50 %1013.9 hPa16.1 kmWSW (250°)7.4 km/hClear
9:54 PM-0.6 °C-8.9 °C54 %1014.2 hPa16.1 kmWSW (240°)5.6 km/hClear
10:54 PM-0.6 °C-8.9 °C54 %1013.9 hPa16.1 kmSW (220°)5.6 km/hClear
11:54 PM-2.2 °C-7.8 °C66 %1013.5 hPa16.1 kmSSW (210°)9.3 km/hClear
Hourly data recorded from KLYH, located 0 kilometers away from Timberlake, Virginia







STORIES FROM OUR PARTNERS